Location: Lobstick
(53.6000°N, 115.1667°W)
Time: 05:26:53
(UTC+00:00)

Envisat - Visible Passes

Search period start: 29 May 2023 00:00
Search period end: 08 June 2023 00:00
Orbit: 763 x 765 km, 98.2° (Epoch: 28 May)

Date Brightness Start Highest point End Pass type
(mag) Time Alt. Az. Time Alt. Az. Time Alt. Az.
30 May 5.7 10:00:56 10° ENE 10:02:53 12° E 10:04:50 10° ESE visible
01 Jun 5.5 10:24:24 10° NE 10:27:59 19° E 10:31:34 10° SE visible
04 Jun 5.6 10:12:25 10° NE 10:15:23 15° E 10:18:20 10° ESE visible
07 Jun 5.7 10:00:43 10° ENE 10:02:45 12° E 10:04:47 10° ESE visible
